FW2323 Weather Reports


time (UTC)temp
C
wind
direction
speed
KPH
gust
KPH
rain 1hr
cm
rain 24hr
cm
rain mn
cm
humidity
%
barometer
mb
20260509053824 12 31 0.0 3.2 0.00 0.00 0.00 80 1019.6
20260509053325 12 32 0.0 0.0 0.00 0.00 0.00 81 1019.6
20260509052826 12 14 0.0 0.0 0.00 0.00 0.00 81 1019.6
20260509052324 12 358 0.0 0.0 0.00 0.00 0.00 81 1019.6
20260509051824 12 332 0.0 0.0 0.00 0.00 0.00 82 1019.6
20260509051324 12 328 0.0 0.0 0.00 0.00 0.00 82 1019.6
20260509050824 12 326 0.0 0.0 0.00 0.00 0.00 85 1019.6
20260509050324 12 326 0.0 0.0 0.00 0.00 0.00 85 1019.6
20260509045824 11 326 0.0 0.0 0.00 0.00 0.00 86 1019.6
20260509045324 11 255 0.0 0.0 0.00 0.00 0.00 88 1019.6
20260509044824 11 255 0.0 0.0 0.00 0.00 0.00 90 1019.6
20260509044325 10 255 0.0 0.0 0.00 0.00 0.00 89 1019.5
20260509043826 10 255 0.0 0.0 0.00 0.00 0.00 88 1019.5
20260509043324 10 255 0.0 0.0 0.00 0.00 0.00 88 1019.5
20260509042324 10 255 0.0 0.0 0.00 0.00 0.00 87 1019.4
20260509041824 10 255 0.0 0.0 0.00 0.00 0.00 88 1019.4
20260509041326 10 255 0.0 0.0 0.00 0.00 0.00 87 1019.4
20260509040824 10 255 0.0 0.0 0.00 0.00 0.00 87 1019.4
20260509040325 10 255 0.0 0.0 0.00 0.00 0.00 88 1019.4
20260509035824 10 292 0.0 0.0 0.00 0.00 0.00 88 1019.4
20260509035325 10 280 0.0 0.0 0.00 0.00 0.00 89 1019.4
20260509034824 10 242 0.0 0.0 0.00 0.00 0.00 89 1019.4
20260509034324 10 228 0.0 0.0 0.00 0.00 0.00 89 1019.4
20260509033825 10 228 0.0 0.0 0.00 0.00 0.00 88 1019.4
20260509033325 10 227 0.0 0.0 0.00 0.00 0.00 88 1019.4
20260509032824 10 227 0.0 0.0 0.00 0.00 0.00 89 1019.3
20260509032325 10 227 0.0 0.0 0.00 0.00 0.00 88 1019.3
20260509031824 10 227 0.0 0.0 0.00 0.00 0.00 88 1019.3
20260509031325 10 227 0.0 0.0 0.00 0.00 0.00 88 1019.3
20260509030325 10 227 0.0 0.0 0.00 0.00 0.00 88 1019.3
20260509025824 10 227 0.0 0.0 0.00 0.00 0.00 88 1019.1
20260509025324 10 227 0.0 0.0 0.00 0.00 0.00 89 1019.1
20260509024824 10 227 0.0 0.0 0.00 0.00 0.00 88 1019.1
20260509024325 10 227 0.0 0.0 0.00 0.00 0.00 88 1019.2
20260509023824 10 227 0.0 0.0 0.00 0.00 0.00 87 1019.2
20260509023324 10 227 0.0 0.0 0.00 0.00 0.00 87 1019.2
20260509022826 10 227 0.0 0.0 0.00 0.00 0.00 87 1019.2
20260509021824 10 227 0.0 0.0 0.00 0.00 0.00 86 1019.2
20260509021325 11 226 0.0 0.0 0.00 0.00 0.00 85 1019.1
20260509020325 11 226 0.0 0.0 0.00 0.00 0.00 85 1019.1
20260509015825 11 227 0.0 0.0 0.00 0.00 0.00 85 1019.0
20260509014324 11 227 0.0 0.0 0.00 0.00 0.00 85 1018.9
20260509013825 11 226 0.0 0.0 0.00 0.00 0.00 85 1018.9
20260509013325 11 227 0.0 0.0 0.00 0.00 0.00 85 1018.9
20260509012825 11 227 0.0 0.0 0.00 0.00 0.00 85 1019.0
20260509012325 11 227 0.0 0.0 0.00 0.00 0.00 84 1019.0
20260509011824 11 228 0.0 0.0 0.00 0.00 0.00 84 1019.0
20260509011325 11 228 0.0 0.0 0.00 0.00 0.00 84 1018.8
20260509010825 11 228 0.0 0.0 0.00 0.00 0.00 85 1018.8
20260509010325 11 228 0.0 0.0 0.00 0.00 0.00 84 1018.8
20260509005824 11 228 0.0 0.0 0.00 0.00 0.00 84 1018.8
20260509005325 11 227 0.0 0.0 0.00 0.00 0.00 83 1018.8
20260509004824 11 230 0.0 0.0 0.00 0.00 0.00 83 1018.8
20260509004324 11 228 0.0 1.6 0.00 0.00 0.00 82 1018.8
20260509003825 12 228 0.0 0.0 0.00 0.00 0.00 82 1018.8
20260509001825 12 227 0.0 9.7 0.00 0.00 0.00 80 1018.8
20260509001325 12 320 0.0 0.0 0.00 0.00 0.00 80 1018.8
20260509000824 12 321 0.0 0.0 0.00 0.00 0.00 80 1018.8
20260509000325 12 5 0.0 0.0 0.00 0.00 0.00 79 1018.8
20260508235826 12 5 0.0 0.0 0.00 0.00 0.00 79 1018.7
20260508235325 12 5 3.2 3.2 0.00 0.00 0.00 79 1018.7
20260508234824 12 320 3.2 4.8 0.00 0.00 0.00 80 1018.7
20260508234325 12 321 0.0 9.7 0.00 0.00 0.00 81 1018.7
20260508233825 12 312 0.0 8.0 0.00 0.00 0.00 81 1018.7
20260508233325 12 296 0.0 8.0 0.00 0.00 0.00 82 1018.7
20260508232326 12 227 0.0 0.0 0.00 0.00 0.00 81 1018.7
20260508231825 12 229 0.0 0.0 0.00 0.00 0.00 81 1018.7
20260508231324 12 226 0.0 0.0 0.00 0.00 0.00 81 1018.7
20260508230326 12 222 0.0 0.0 0.00 0.00 0.00 80 1018.7
20260508225824 12 222 0.0 0.0 0.00 0.00 0.00 80 1018.6
20260508225326 12 222 0.0 0.0 0.00 0.00 0.00 80 1018.6
20260508224825 12 222 0.0 0.0 0.00 0.00 0.00 80 1018.6
20260508224327 12 223 0.0 0.0 0.00 0.00 0.00 79 1018.6
20260508223824 12 215 0.0 0.0 0.00 0.00 0.00 80 1018.6
20260508223325 12 215 0.0 0.0 0.00 0.00 0.00 79 1018.6
20260508222827 13 215 0.0 0.0 0.00 0.00 0.00 79 1018.7
20260508222326 13 215 0.0 0.0 0.00 0.00 0.00 79 1018.7
20260508221826 13 215 0.0 0.0 0.00 0.00 0.00 79 1018.7
20260508221326 13 216 0.0 0.0 0.00 0.00 0.00 79 1018.7
20260508215827 13 227 0.0 0.0 0.00 0.00 0.00 78 1018.7
20260508214826 13 222 0.0 0.0 0.00 0.00 0.00 78 1018.7
20260508213825 13 222 0.0 0.0 0.00 0.00 0.00 78 1018.6
20260508213326 13 222 0.0 0.0 0.00 0.00 0.00 77 1018.6
20260508212825 13 222 0.0 0.0 0.00 0.00 0.00 77 1018.5
20260508211826 13 213 0.0 0.0 0.00 0.00 0.00 76 1018.5
20260508211324 13 212 0.0 0.0 0.00 0.00 0.00 76 1018.4
20260508210825 13 210 0.0 0.0 0.00 0.00 0.00 75 1018.4
20260508210325 13 210 0.0 0.0 0.00 0.00 0.00 75 1018.4
20260508205826 13 210 0.0 0.0 0.00 0.00 0.00 74 1018.3
20260508205324 14 210 0.0 0.0 0.00 0.00 0.00 74 1018.3
20260508204825 14 205 0.0 0.0 0.00 0.00 0.00 73 1018.3
20260508204326 14 205 0.0 0.0 0.00 0.00 0.00 73 1018.2
20260508203825 14 205 0.0 0.0 0.00 0.00 0.00 72 1018.2
20260508203325 15 205 0.0 0.0 0.00 0.00 0.00 71 1018.2
20260508202826 15 205 0.0 0.0 0.00 0.00 0.00 71 1018.0
20260508202326 15 205 0.0 0.0 0.00 0.00 0.00 69 1018.0
20260508201826 15 205 0.0 0.0 0.00 0.00 0.00 69 1018.0
20260508201324 15 205 0.0 0.0 0.00 0.00 0.00 68 1017.9
20260508200825 15 205 0.0 0.0 0.00 0.00 0.00 67 1017.9
20260508195757 15 205 0.0 0.0 0.00 0.00 0.00 67 1017.8
20260508195258 16 215 0.0 0.0 0.00 0.00 0.00 66 1017.8
20260508194758 16 224 0.0 0.0 0.00 0.00 0.00 64 1017.8
20260508194258 16 226 0.0 0.0 0.00 0.00 0.00 64 1017.4
20260508193758 16 226 0.0 0.0 0.00 0.00 0.00 63 1017.4
20260508193257 16 215 0.0 0.0 0.00 0.00 0.00 62 1017.4
20260508192757 16 226 0.0 0.0 0.00 0.00 0.00 61 1017.3
20260508192257 16 214 1.6 0.0 0.00 0.00 0.00 61 1017.3
20260508191757 16 213 1.6 0.0 0.00 0.00 0.00 61 1017.3
20260508191259 16 213 3.2 0.0 0.00 0.00 0.00 62 1017.0
20260508190758 16 224 3.2 11.3 0.00 0.00 0.00 62 1017.0
20260508190257 16 217 3.2 11.3 0.00 0.00 0.00 61 1017.0
20260508185757 17 218 3.2 9.7 0.00 0.00 0.00 61 1016.8
20260508185258 17 215 3.2 8.0 0.00 0.00 0.00 61 1016.8
20260508184758 17 218 3.2 9.7 0.00 0.00 0.00 61 1016.8
20260508184257 17 201 3.2 8.0 0.00 0.00 0.00 60 1016.6
20260508183757 17 222 3.2 9.7 0.00 0.00 0.00 61 1016.6
20260508183257 17 214 4.8 8.0 0.00 0.00 0.00 61 1016.6
20260508182757 17 216 4.8 9.7 0.00 0.00 0.00 61 1016.5
20260508182257 17 214 3.2 11.3 0.00 0.00 0.00 61 1016.5
20260508181257 17 217 3.2 9.7 0.00 0.00 0.00 61 1016.3
20260508180758 17 193 3.2 8.0 0.00 0.00 0.00 61 1016.3
20260508180258 17 215 8.0 9.7 0.00 0.00 0.00 61 1016.3
20260508175757 17 201 8.0 11.3 0.00 0.00 0.00 61 1016.2
20260508175257 18 202 8.0 11.3 0.00 0.00 0.00 61 1016.2
20260508174757 18 204 8.0 11.3 0.00 0.00 0.00 60 1016.2
20260508172757 18 205 3.2 14.5 0.00 0.00 0.00 58 1015.9
20260508172259 18 200 3.2 9.7 0.00 0.00 0.00 57 1015.9
20260508171257 19 181 4.8 16.1 0.00 0.00 0.00 56 1016.0
20260508170757 19 176 4.8 12.9 0.00 0.00 0.00 56 1016.0
20260508170257 19 173 3.2 14.5 0.00 0.00 0.00 55 1016.0
20260508165257 20 152 0.0 14.5 0.00 0.00 0.00 56 1016.0
20260508164758 20 154 0.0 14.5 0.00 0.00 0.00 55 1016.0
20260508164257 20 129 0.0 3.2 0.00 0.00 0.00 54 1015.9
20260508163801 20 111 0.0 3.2 0.00 0.00 0.00 54 1015.9
20260508163257 20 124 1.6 0.0 0.00 0.00 0.00 54 1015.9
20260508162757 20 182 1.6 0.0 0.00 0.00 0.00 55 1015.8
20260508162258 20 178 3.2 4.8 0.00 0.00 0.00 55 1015.8
20260508161758 20 125 3.2 11.3 0.00 0.00 0.00 54 1015.8
20260508161258 20 162 3.2 9.7 0.00 0.00 0.00 54 1015.7
20260508155758 20 146 4.8 9.7 0.00 0.00 0.00 53 1015.6
20260508154758 20 128 4.8 12.9 0.00 0.00 0.00 51 1015.6
20260508153758 20 142 0.0 9.7 0.00 0.00 0.00 51 1015.5
20260508153258 20 113 3.2 0.0 0.00 0.00 0.00 51 1015.5
20260508152757 20 144 3.2 4.8 0.00 0.00 0.00 51 1015.5
20260508152258 20 126 0.0 8.0 0.00 0.00 0.00 51 1015.5
20260508151757 20 97 0.0 9.7 0.00 0.00 0.00 50 1015.5
20260508151258 20 119 3.2 1.6 0.00 0.00 0.00 51 1015.6
20260508150257 20 142 3.2 9.7 0.00 0.00 0.00 50 1015.6
20260508145259 20 163 4.8 8.0 0.00 0.00 0.00 51 1015.6
20260508144757 20 147 4.8 11.3 0.00 0.00 0.00 50 1015.6
20260508144257 21 120 3.2 12.9 0.00 0.00 0.00 50 1015.7
20260508143757 21 139 3.2 9.7 0.00 0.00 0.00 50 1015.7
20260508142258 21 126 3.2 9.7 0.00 0.00 0.00 49 1015.8
20260508141301 21 153 4.8 9.7 0.00 0.00 0.00 50 1015.8
20260508140757 21 114 4.8 16.1 0.00 0.00 0.00 48 1015.8
20260508140258 21 126 8.0 14.5 0.00 0.00 0.00 49 1015.8
20260508135757 21 109 8.0 11.3 0.00 0.00 0.00 49 1015.8
20260508135258 21 132 8.0 16.1 0.00 0.00 0.00 49 1015.8
20260508134759 21 108 8.0 16.1 0.00 0.00 0.00 47 1015.8
20260508134301 21 118 8.0 16.1 0.00 0.00 0.00 48 1016.1
20260508133758 21 115 8.0 16.1 0.00 0.00 0.00 48 1016.1
20260508133257 21 134 3.2 20.9 0.00 0.00 0.00 49 1016.1
20260508132758 21 126 3.2 16.1 0.00 0.00 0.00 49 1016.2
20260508132257 21 128 8.0 16.1 0.00 0.00 0.00 49 1016.2
20260508131757 21 125 8.0 9.7 0.00 0.00 0.00 48 1016.2
20260508131257 21 137 8.0 14.5 0.00 0.00 0.00 50 1016.1
20260508130757 21 112 8.0 11.3 0.00 0.00 0.00 49 1016.1
20260508130258 21 134 8.0 14.5 0.00 0.00 0.00 49 1016.1
20260508125758 21 123 8.0 19.3 0.00 0.00 0.00 49 1016.2
20260508125258 21 146 8.0 19.3 0.00 0.00 0.00 49 1016.2
20260508124757 21 145 8.0 16.1 0.00 0.00 0.00 49 1016.2
20260508124258 21 106 4.8 16.1 0.00 0.00 0.00 50 1016.1
20260508123258 21 142 8.0 16.1 0.00 0.00 0.00 49 1016.1
20260508122757 21 111 8.0 11.3 0.00 0.00 0.00 50 1016.3
20260508122258 21 106 8.0 14.5 0.00 0.00 0.00 51 1016.3
20260508121758 21 124 8.0 19.3 0.00 0.00 0.00 50 1016.3
20260508121257 21 122 8.0 14.5 0.00 0.00 0.00 51 1016.3
20260508120257 21 119 9.7 20.9 0.00 0.00 0.00 51 1016.3
20260508115758 21 86 9.7 16.1 0.00 0.00 0.00 50 1016.3
20260508114758 21 127 8.0 24.1 0.00 0.00 0.00 51 1016.3
20260508114258 21 127 8.0 19.3 0.00 0.00 0.00 52 1016.4
20260508113758 21 107 8.0 16.1 0.00 0.00 0.00 51 1016.4
20260508113257 20 125 8.0 12.9 0.00 0.08 0.00 53 1016.4
20260508112257 20 126 8.0 19.3 0.00 0.08 0.00 52 1016.5
20260508111758 20 119 8.0 20.9 0.00 0.15 0.00 53 1016.5
20260508111257 20 101 4.8 19.3 0.00 0.18 0.00 53 1016.7
20260508110757 20 110 4.8 16.1 0.00 0.20 0.00 54 1016.7
20260508110257 20 109 4.8 19.3 0.00 0.25 0.00 55 1016.7
20260508105757 20 107 4.8 16.1 0.00 0.36 0.00 53 1016.8
20260508105257 20 133 8.0 19.3 0.00 0.36 0.00 55 1016.8
20260508104758 20 105 8.0 14.5 0.00 0.36 0.00 55 1016.8
20260508104259 20 123 9.7 14.5 0.00 0.36 0.00 55 1016.9
20260508103759 20 122 9.7 20.9 0.00 0.36 0.00 56 1016.9
20260508103258 20 92 4.8 19.3 0.00 0.36 0.00 54 1016.9
20260508102757 20 114 4.8 20.9 0.00 0.36 0.00 55 1017.0
20260508102258 20 123 8.0 19.3 0.00 0.36 0.00 55 1017.0
20260508101758 20 110 8.0 12.9 0.00 0.36 0.00 55 1017.0
20260508101257 19 80 4.8 16.1 0.00 0.36 0.00 56 1017.2
20260508100757 19 89 4.8 19.3 0.00 0.36 0.00 56 1017.2
20260508100258 19 83 1.6 19.3 0.00 0.36 0.00 58 1017.2
20260508095257 19 61 0.0 14.5 0.00 0.36 0.00 55 1017.2
20260508094759 19 126 0.0 0.0 0.00 0.36 0.00 56 1017.2
20260508094257 18 115 1.6 0.0 0.00 0.36 0.00 55 1017.4
20260508093258 18 94 0.0 9.7 0.00 0.36 0.00 57 1017.4
20260508092757 18 67 0.0 9.7 0.00 0.36 0.00 59 1017.5
20260508092258 18 70 0.0 0.0 0.00 0.36 0.00 58 1017.5
20260508091757 18 90 0.0 0.0 0.00 0.36 0.00 59 1017.5
20260508091259 18 23 0.0 0.0 0.00 0.36 0.00 61 1017.4
20260508090757 18 108 0.0 0.0 0.00 0.36 0.00 59 1017.4
20260508090258 18 84 0.0 9.7 0.00 0.36 0.00 61 1017.4
20260508085759 17 44 0.0 0.0 0.00 0.36 0.00 61 1017.4
20260508085258 17 33 1.6 3.2 0.00 0.36 0.00 61 1017.4
20260508084757 17 73 1.6 8.0 0.00 0.36 0.00 64 1017.4
20260508083259 16 33 0.0 0.0 0.00 0.36 0.00 64 1017.7
20260508082759 16 52 0.0 0.0 0.00 0.36 0.00 65 1017.7
20260508082257 16 77 1.6 0.0 0.00 0.36 0.00 66 1017.7
20260508081758 16 335 1.6 0.0 0.00 0.36 0.00 64 1017.7
20260508081258 16 5 0.0 8.0 0.00 0.36 0.00 67 1017.9
20260508080258 15 56 0.0 0.0 0.00 0.36 0.00 67 1017.9
20260508075758 15 0 0.0 0.0 0.00 0.36 0.00 70 1017.8
20260508075258 15 109 0.0 14.5 0.00 0.36 0.00 70 1017.8
20260508074758 15 1 0.0 0.0 0.00 0.36 0.00 70 1017.8
20260508074258 15 23 0.0 1.6 0.00 0.36 0.00 71 1017.9
20260508073758 15 136 0.0 0.0 0.00 0.36 0.00 70 1017.9
20260508073258 15 171 0.0 0.0 0.00 0.36 0.00 72 1017.9
20260508072757 15 51 0.0 0.0 0.00 0.36 0.00 72 1017.9
20260508071257 14 14 0.0 0.0 0.00 0.36 0.00 74 1017.8
20260508070757 14 49 0.0 0.0 0.00 0.36 0.00 72 1017.8
20260508070257 14 329 0.0 0.0 0.00 0.36 0.00 73 1017.8
20260508065800 14 25 0.0 0.0 0.00 0.36 0.00 74 1017.8
20260508065257 13 321 0.0 8.0 0.00 0.36 0.00 73 1017.8
20260508064758 13 355 0.0 0.0 0.00 0.36 0.00 76 1017.8
20260508064257 13 16 0.0 8.0 0.00 0.36 0.00 76 1017.8
20260508063758 13 16 0.0 4.8 0.00 0.36 0.00 76 1017.8
20260508063258 13 12 0.0 0.0 0.00 0.36 0.00 77 1017.8
20260508062757 13 18 0.0 0.0 0.00 0.36 0.00 77 1017.7
20260508062258 13 16 0.0 1.6 0.00 0.36 0.00 75 1017.7
20260508061758 13 53 0.0 0.0 0.00 0.36 0.00 76 1017.7
20260508061259 13 36 0.0 0.0 0.00 0.36 0.00 76 1017.7
20260508060759 13 4 0.0 0.0 0.00 0.36 0.00 76 1017.7
20260508055800 13 32 0.0 0.0 0.00 0.36 0.00 79 1017.5
20260508055259 13 32 0.0 0.0 0.00 0.36 0.00 79 1017.5
20260508054757 13 32 0.0 0.0 0.00 0.36 0.00 80 1017.5
20260508054258 12 32 0.0 0.0 0.00 0.36 0.00 79 1017.5